| time (UTC) | temp C | wind direction | speed KPH | gust KPH | rain 1hr cm | rain 24hr cm | rain mn cm | humidity % | barometer mb |
| 20260504080932 | 12 | 184 | 1.6 | 4.8 | 0.00 | 0.00 | 0.00 | 54 | 996.1 |
| 20260504045902 | 12 | 210 | 1.6 | 3.2 | 0.00 | 0.00 | 0.00 | 50 | 999.8 |
| 20260504044932 | 12 | 213 | 3.2 | 3.2 | 0.00 | 0.00 | 0.00 | 50 | 999.9 |
| 20260504043902 | 12 | 214 | 1.6 | 3.2 | 0.00 | 0.00 | 0.00 | 50 | 1000.0 |
| 20260504042932 | 12 | 222 | 1.6 | 3.2 | 0.00 | 0.00 | 0.00 | 51 | 1000.2 |
| 20260504041902 | 13 | 229 | 1.6 | 3.2 | 0.00 | 0.00 | 0.00 | 50 | 1000.3 |
| 20260504040903 | 13 | 238 | 1.6 | 1.6 | 0.00 | 0.00 | 0.00 | 49 | 1000.5 |
| 20260504035902 | 13 | 240 | 1.6 | 3.2 | 0.00 | 0.00 | 0.00 | 47 | 1000.9 |
| 20260504034902 | 12 | 236 | 1.6 | 3.2 | 0.00 | 0.00 | 0.00 | 49 | 1001.1 |
| 20260504033902 | 13 | 245 | 0.0 | 0.0 | 0.00 | 0.00 | 0.00 | 50 | 1001.2 |
| 20260504032932 | 13 | 246 | 0.0 | 0.0 | 0.00 | 0.00 | 0.00 | 51 | 1001.4 |
| 20260504031902 | 13 | 242 | 0.0 | 0.0 | 0.00 | 0.00 | 0.00 | 49 | 1001.4 |
| 20260504030902 | 13 | 242 | 0.0 | 0.0 | 0.00 | 0.00 | 0.00 | 50 | 1001.6 |
| 20260504025903 | 13 | 242 | 0.0 | 0.0 | 0.00 | 0.00 | 0.00 | 49 | 1001.6 |
| 20260504025002 | 13 | 242 | 0.0 | 0.0 | 0.00 | 0.00 | 0.00 | 47 | 1001.6 |
| 20260504023902 | 13 | 238 | 0.0 | 0.0 | 0.00 | 0.00 | 0.00 | 48 | 1001.7 |
| 20260504022902 | 14 | 236 | 0.0 | 0.0 | 0.00 | 0.00 | 0.00 | 46 | 1001.7 |
| 20260504022002 | 15 | 248 | 0.0 | 0.0 | 0.00 | 0.00 | 0.00 | 44 | 1001.7 |
| 20260504020902 | 15 | 249 | 0.0 | 0.0 | 0.00 | 0.00 | 0.00 | 44 | 1001.6 |
| 20260504015902 | 16 | 255 | 0.0 | 0.0 | 0.00 | 0.00 | 0.00 | 42 | 1001.7 |
| 20260504014902 | 17 | 255 | 0.0 | 0.0 | 0.00 | 0.00 | 0.00 | 40 | 1001.7 |
| 20260504013902 | 17 | 255 | 1.6 | 3.2 | 0.00 | 0.00 | 0.00 | 35 | 1001.8 |
| 20260504012902 | 17 | 259 | 1.6 | 3.2 | 0.00 | 0.00 | 0.00 | 36 | 1001.8 |
| 20260504011902 | 18 | 262 | 1.6 | 3.2 | 0.00 | 0.00 | 0.00 | 35 | 1001.8 |
| 20260504010932 | 18 | 276 | 1.6 | 3.2 | 0.00 | 0.00 | 0.00 | 38 | 1001.9 |
| 20260504005902 | 18 | 270 | 1.6 | 3.2 | 0.00 | 0.00 | 0.00 | 35 | 1001.9 |
| 20260504004903 | 18 | 273 | 1.6 | 3.2 | 0.00 | 0.00 | 0.00 | 34 | 1002.0 |
| 20260504003902 | 18 | 265 | 1.6 | 3.2 | 0.00 | 0.00 | 0.00 | 36 | 1002.0 |
| 20260504002902 | 18 | 279 | 1.6 | 3.2 | 0.00 | 0.00 | 0.00 | 30 | 1002.0 |
| 20260504001902 | 19 | 270 | 0.0 | 0.0 | 0.00 | 0.00 | 0.00 | 32 | 1002.1 |
| 20260504000902 | 20 | 276 | 0.0 | 0.0 | 0.00 | 0.00 | 0.00 | 30 | 1002.1 |
| 20260503235902 | 20 | 268 | 3.2 | 4.8 | 0.00 | 0.00 | 0.00 | 30 | 1002.1 |
| 20260503234932 | 20 | 284 | 3.2 | 4.8 | 0.00 | 0.00 | 0.00 | 28 | 1002.1 |
| 20260503233902 | 20 | 276 | 3.2 | 4.8 | 0.00 | 0.00 | 0.00 | 30 | 1002.1 |
| 20260503232932 | 20 | 264 | 3.2 | 4.8 | 0.00 | 0.00 | 0.00 | 31 | 1002.2 |
| 20260503231902 | 20 | 283 | 3.2 | 4.8 | 0.00 | 0.00 | 0.00 | 27 | 1002.3 |
| 20260503230902 | 20 | 283 | 3.2 | 4.8 | 0.00 | 0.00 | 0.00 | 27 | 1002.4 |
| 20260503225902 | 20 | 251 | 4.8 | 6.4 | 0.00 | 0.00 | 0.00 | 27 | 1002.4 |
| 20260503224902 | 21 | 295 | 1.6 | 3.2 | 0.00 | 0.00 | 0.00 | 28 | 1002.5 |
| 20260503223932 | 20 | 280 | 1.6 | 4.8 | 0.00 | 0.00 | 0.00 | 29 | 1002.5 |
| 20260503222902 | 20 | 295 | 3.2 | 4.8 | 0.00 | 0.00 | 0.00 | 27 | 1002.6 |
| 20260503221902 | 21 | 286 | 3.2 | 4.8 | 0.00 | 0.00 | 0.00 | 28 | 1002.8 |
| 20260503220902 | 21 | 266 | 3.2 | 4.8 | 0.00 | 0.00 | 0.00 | 27 | 1002.7 |
| 20260503215902 | 21 | 277 | 3.2 | 4.8 | 0.00 | 0.00 | 0.00 | 27 | 1002.8 |
| 20260503214902 | 21 | 299 | 4.8 | 8.0 | 0.00 | 0.00 | 0.00 | 27 | 1002.8 |
| 20260503213932 | 21 | 286 | 3.2 | 4.8 | 0.00 | 0.00 | 0.00 | 26 | 1002.8 |
| 20260503212902 | 21 | 294 | 3.2 | 6.4 | 0.00 | 0.00 | 0.00 | 27 | 1002.9 |
| 20260503211902 | 21 | 282 | 3.2 | 4.8 | 0.00 | 0.00 | 0.00 | 28 | 1002.9 |
| 20260503210902 | 21 | 287 | 3.2 | 4.8 | 0.00 | 0.00 | 0.00 | 27 | 1002.9 |
| 20260503205901 | 21 | 283 | 1.6 | 3.2 | 0.00 | 0.00 | 0.00 | 27 | 1003.1 |
| 20260503204902 | 21 | 281 | 4.8 | 6.4 | 0.00 | 0.00 | 0.00 | 27 | 1003.0 |
| 20260503203902 | 21 | 266 | 1.6 | 3.2 | 0.00 | 0.00 | 0.00 | 28 | 1003.1 |
| 20260503202902 | 21 | 291 | 1.6 | 1.6 | 0.00 | 0.00 | 0.00 | 29 | 1003.3 |
| 20260503201932 | 21 | 283 | 3.2 | 4.8 | 0.00 | 0.00 | 0.00 | 29 | 1003.3 |
| 20260503200902 | 21 | 285 | 4.8 | 6.4 | 0.00 | 0.00 | 0.00 | 30 | 1003.3 |
| 20260503195902 | 21 | 281 | 6.4 | 9.7 | 0.00 | 0.00 | 0.00 | 32 | 1003.5 |
| 20260503194902 | 21 | 267 | 4.8 | 6.4 | 0.00 | 0.00 | 0.00 | 32 | 1003.6 |
| 20260503193932 | 21 | 281 | 4.8 | 6.4 | 0.00 | 0.00 | 0.00 | 32 | 1003.7 |
| 20260503192902 | 21 | 335 | 3.2 | 8.0 | 0.00 | 0.00 | 0.00 | 33 | 1003.7 |
| 20260503192002 | 21 | 288 | 4.8 | 6.4 | 0.00 | 0.00 | 0.00 | 33 | 1003.7 |
| 20260503190902 | 22 | 300 | 6.4 | 9.7 | 0.00 | 0.00 | 0.00 | 32 | 1003.7 |
| 20260503185902 | 21 | 286 | 3.2 | 3.2 | 0.00 | 0.00 | 0.00 | 34 | 1003.7 |
| 20260503184902 | 21 | 338 | 3.2 | 6.4 | 0.00 | 0.00 | 0.00 | 36 | 1003.8 |
| 20260503183932 | 21 | 272 | 1.6 | 4.8 | 0.00 | 0.00 | 0.00 | 39 | 1003.9 |
| 20260503182902 | 21 | 285 | 3.2 | 4.8 | 0.00 | 0.00 | 0.00 | 36 | 1004.0 |
| 20260503181902 | 21 | 310 | 0.0 | 3.2 | 0.00 | 0.00 | 0.00 | 37 | 1003.9 |
| 20260503180903 | 21 | 312 | 4.8 | 8.0 | 0.00 | 0.00 | 0.00 | 38 | 1004.1 |
| 20260503175931 | 21 | 329 | 4.8 | 8.0 | 0.00 | 0.00 | 0.00 | 37 | 1004.1 |
| 20260503174902 | 21 | 345 | 4.8 | 8.0 | 0.00 | 0.00 | 0.00 | 41 | 1004.1 |
| 20260503173902 | 21 | 279 | 3.2 | 4.8 | 0.00 | 0.00 | 0.00 | 38 | 1004.3 |
| 20260503172902 | 21 | 15 | 3.2 | 6.4 | 0.00 | 0.00 | 0.00 | 40 | 1004.3 |
| 20260503171902 | 20 | 306 | 4.8 | 17.7 | 0.00 | 0.00 | 0.00 | 42 | 1004.4 |
| 20260503170902 | 20 | 12 | 4.8 | 8.0 | 0.00 | 0.00 | 0.00 | 43 | 1004.5 |
| 20260503150901 | 16 | 312 | 6.4 | 14.5 | 0.00 | 0.00 | 0.00 | 51 | 1004.2 |
| 20260503130933 | 12 | 258 | 0.0 | 0.0 | 0.00 | 0.00 | 0.00 | 58 | 1003.5 |